World > North America > United States > Maryland

Annapolis, Maryland Regional Weather

Lat: 38.97N, Lon: 76.5W
Wx Zone: MDZ014Web Search

Helpful Tip: Abbreviated, 7 Day, 14 Day Forecasts. There is a weather forecast for every taste.

Feedback
Annapolis Weather Map
UTC Time: 9/19/2020, 12:05
Your Time:

Annapolis, MD Regional Weather

Expires:202009191200;;045832
ASUS41 KLWX 191112
RWRLWX

REGIONAL WEATHER ROUNDUP
NATIONAL WEATHER SERVICE BALTIMORE MD/WASHINGTON DC
700 AM EDT SAT SEP 19 2020

Note: "FAIR" indicates few or no clouds below 12,000 feet
with no significant weather and/or obstructions to visibility.
 TC=TEMPERATURE CELSIUS

 * =Non NWS site. Station does not report precipitation (e.g. rain,
    snow, etc.), thunder, or fog.


MDZ006>007-011-014-191200-
BALTIMORE METRO
  
CITY           SKY/WX    TMP DP  RH WIND       PRES   REMARKS
BWI AIRPORT    PTCLDY    49  33  54 N6        30.29R                  
MARTIN STATE   CLEAR     46  36  66 NW5       30.31R                  
ANNAPOLIS      CLEAR     54  42  64 N9        30.29R                  
ABERDEEN*      CLEAR     46  34  62 N7        30.30R                  
FORT MEADE*    CLEAR     43  36  75 CALM      30.32R                  

$$


SKY/WX - Weather  TMP - Temperature  DP - Dew Point  RH - Relative Humidity
WIND - Wind Direction/Speed PRES - Barometric Pressure VSB - Visibility
WCI - Wind Chill Index E13G22 Wind - East Wind 13 mph/Gusts of 22 mph